Time,Engine speed,Mass air flow (MAF),Intake-air temperature,Ignition angle,Injection time,Ambient temperature,Actual throttle plate angle,Vehicle speed,Actual lambda value bank 1,Actual lambda value bank 2,Pressure ah. of thr. plate fr. press. sensor,psi
18:36:40.5303974,739.5,20,33,6.75,1.19,25.5,2.44,0,0.99731,0.99634,1000,0
18:36:40.7314017,729.75,19.6,33,8.25,1.19,25.5,2.44,0,0.99756,0.9939,1000,0
18:36:40.9190039,748.5,19.5,33,5.25,1.15,25.5,2.39,0,0.99707,0.9917,1000,0
18:36:41.1191299,740.25,20.5,33,6.75,1.16,25.5,2.39,0,0.99414,0.99048,1000,0
18:36:41.3198433,739,20.1,33,6,1.18,25.5,2.44,0,0.9873,0.99146,1000,0
18:36:41.5500325,736,19.5,33,7.5,1.15,25.5,2.44,0,0.98828,0.99023,1000,0
18:36:41.7504181,736.75,20.7,33,7.5,1.16,25.5,2.39,0,0.98804,0.98755,1000,0
18:36:41.9494426,734.75,19.5,33,6.75,1.15,25.5,2.44,0,0.98755,0.98853,1000,0
18:36:42.1494505,729.75,19.5,33,9,1.17,25.5,2.44,0,0.98975,0.99268,1000,0
18:36:42.3375242,733.75,19,33,8.25,1.14,25.5,2.39,0,0.99243,0.99048,1000,0
18:36:42.5369846,741.25,19.3,33,7.5,1.11,25.5,2.39,0,0.9939,0.98926,1000,0
18:36:42.7609920,739.25,19.8,33,8.25,1.12,25.5,2.44,0,0.99414,0.99023,1000,0
18:36:42.9704786,743,19.8,33,7.5,1.16,25.5,2.44,0,0.99658,0.99609,1000,0
18:36:43.1759659,745.25,19.4,33,6.75,1.12,25.5,2.44,0,1.00732,1.00024,1000,0
18:36:43.3592394,747,19.9,33,6,1.13,25.5,2.44,0,1.0061,1.00317,1000,0
18:36:43.5587688,739.75,19.7,33,7.5,1.16,25.5,2.47,0,1.00781,1.00928,1000,0
18:36:43.7564450,738,19.9,33,6.75,1.16,25.5,2.44,0,1.00586,1.01074,1000,0
18:36:44.0101137,744.75,19.8,33,5.25,1.14,25.5,2.47,0,1.00732,1.00781,1000,0
18:36:44.2100342,736.5,19.8,33,6.75,1.15,25.5,2.47,0,1.00806,1.00806,1000,0
18:36:44.3945466,738.25,19.6,33,6.75,1.17,25.5,2.44,0,1.00586,1.01025,1000,0
18:36:44.5881508,732.5,19.8,33,8.25,1.17,25.5,2.47,0,1.0061,1.01147,1000,0
18:36:44.7668460,740.75,19.8,33,6.75,1.15,25.5,2.47,0,1.00635,1.01025,1000,0
18:36:44.9675630,738.75,19.6,33,6.75,1.14,25.5,2.47,0,1.00635,1.00977,1000,0
18:36:45.1524323,732.25,19.8,33,8.25,1.18,25.5,2.47,0,1.00537,1.0105,1000,0
18:36:45.3361155,747,19.8,33,5.25,1.17,25.5,2.47,0,1.00269,1.00928,1000,0
18:36:45.5357274,744.25,19.6,33,5.25,1.17,25.5,2.47,0,1.00488,1.00928,1000,0
18:36:45.7356720,735.25,19.8,33,8.25,1.15,25.5,2.47,0,1.00806,1.00806,1000,0
18:36:45.9351217,739,19.7,33,6,1.15,25.5,2.47,0,1.00488,1.0105,1000,0
18:36:46.1247635,740.75,19.8,33,6,1.18,25.5,2.47,0,1.00269,1.0105,1000,0
18:36:46.3035932,743.75,20.2,33,5.25,1.18,25.5,2.47,0,1.00195,1.00342,1000,0
18:36:46.5045064,736.5,20,33,6.75,1.16,25.5,2.47,0,1.00244,1.00269,1000,0
18:36:46.7090991,743.5,19.9,33,6,1.16,25.5,2.47,0,1.00171,1.00293,1000,0
18:36:46.9077573,743,19.8,33,5.25,1.18,25.5,2.47,0,0.9917,1.0022,1000,0
18:36:47.1202236,737.25,19.6,33,7.5,1.18,25.5,2.47,0,0.99756,1.00049,1000,0
18:36:47.3297274,746.5,19.6,33,6,1.14,25.5,2.47,0,0.99829,0.99634,1000,0
18:36:47.5130784,734.5,19.8,33,6.75,1.14,25.5,2.47,0,0.9978,0.99536,1000,0
18:36:47.6991702,735.75,19.5,33,7.5,1.17,25.5,2.47,0,0.99902,0.99731,1000,0
18:36:47.9067126,742.5,19.6,33,6.75,1.16,25.5,2.47,0,1.00171,0.99707,1000,0
18:36:48.0966673,736.25,19.6,33,6.75,1.14,25.5,2.47,0,1.00195,0.99707,1000,0
18:36:48.3033343,742.25,19.7,33,6,1.14,25.5,2.47,0,1.00146,0.99805,1000,0
18:36:48.4907282,731.5,19.7,33,9,1.17,25.5,2.47,0,1.00049,1,1000,0
18:36:48.6918690,735.5,19.9,33,8.25,1.17,25.5,2.47,0,1.00464,1.00122,1000,0
18:36:48.8833867,748.25,20,33,4.5,1.15,25.5,2.47,0,1.00586,0.99878,1000,0
18:36:49.0731586,740.25,19.9,33,6,1.15,25.5,2.47,0,1.00537,1.00122,1000,0
18:36:49.2788514,737.25,19.7,33,6.75,1.18,25.5,2.47,0,1.00537,1.00659,1000,0
18:36:49.4794837,740,19.7,33,6,1.18,25.5,2.47,0,1.00513,1.00732,1000,0
18:36:49.6876953,739.5,20,33,6.75,1.16,25.5,2.47,0,1.00732,1.00659,1000,0
18:36:49.8713614,745,20,33,6,1.16,25.5,2.47,0,1.00488,1.0061,1000,0
18:36:50.0615792,752.25,19.9,33,4.5,1.18,25.5,2.47,0,1.00195,1.00684,1000,0
18:36:50.2638664,739.25,19.8,33,6.75,1.18,25.5,2.47,0,1.00293,1.00562,1000,0
18:36:50.4803712,732.75,19.8,33,8.25,1.16,25.5,2.47,0,1.00269,0.99927,1000,0
18:36:50.6703814,744.5,19.8,33,6,1.15,25.5,2.49,0,1.00024,0.99927,1000,0
18:36:50.8705692,736,19.7,33,6,1.18,25.5,2.47,0,0.99463,1,1000,0
18:36:51.0707777,738.5,19.9,33,6,1.18,25.5,2.47,0,0.99658,1,1000,0
18:36:51.2557367,738,19.7,33,6.75,1.16,25.5,2.44,0,1,0.99854,1000,0
18:36:51.4559935,751.25,19.8,33,5.25,1.15,25.5,2.47,0,1.00049,0.99756,1000,0
18:36:51.6565420,740.25,19.9,33,6,1.18,25.5,2.47,0,1,0.99878,1000,0
18:36:51.8722888,736,19.7,33,7.5,1.18,25.5,2.47,0,1.00049,0.99634,1000,0
18:36:52.0658282,748.25,19.5,33,5.25,1.14,25.5,2.44,0,1.00146,0.99292,1000,0
18:36:52.2642589,740.5,19.6,33,6,1.15,25.5,2.47,0,1.00171,0.99487,1000,0
18:36:52.4643977,742.75,19.7,33,6,1.17,25.5,2.44,0,0.99438,0.99658,1000,0
18:36:52.6649746,746,20.1,33,5.25,1.18,25.5,2.44,0,1.00049,0.99707,1000,0
18:36:52.8689927,734.25,19.6,33,6,1.16,25.5,2.47,0,1.00171,0.99756,1000,0
18:36:53.0754435,748.25,19.9,33,4.5,1.15,25.5,2.44,0,1.00049,0.9978,1000,0
18:36:53.2650803,742,19.9,33,5.25,1.18,25.5,2.44,0,1.00049,1.00049,1000,0
18:36:53.4496652,751.5,19.4,33,3.75,1.16,25.5,2.44,0,0.99878,0.99805,1000,0
18:36:53.6508678,736,19.9,33,6.75,1.15,25.5,2.44,0,1,0.99487,1000,0
18:36:53.8407798,732.25,19.6,33,6.75,1.15,25.5,2.44,0,0.9978,0.99463,1000,0
18:36:54.0464662,739.75,19.5,33,6,1.17,25.5,2.44,0,0.99658,0.99658,1000,0
18:36:54.2467344,748.25,19.8,33,4.5,1.17,25.5,2.44,0,1,1.00024,1000,0
18:36:54.4273341,739.75,19.8,33,5.25,1.15,25.5,2.44,0,1.00146,0.99707,1000,0
18:36:54.6261083,742.5,19.8,33,6,1.15,25.5,2.44,0,1,0.99561,1000,0
18:36:54.8261873,728.25,19.8,33,8.25,1.18,25.5,2.39,0,0.99219,0.9978,1000,0
18:36:55.0262024,746,19.7,33,5.25,1.16,25.5,2.44,0,0.99609,0.99756,1000,0
18:36:55.2277464,728,19.9,33,8.25,1.16,25.5,2.39,0,1.00122,0.99731,1000,0
18:36:55.4470062,743.5,19.7,33,6,1.15,25.5,2.44,0,1.00049,0.99658,1000,0
18:36:55.7856833,742.5,19.8,33,5.25,1.17,25.5,2.44,0,1,1.00195,1000,0
18:36:56.0254963,743.25,19.7,33,5.25,1.15,25.5,2.44,0,1.00195,1,1000,0
18:36:56.2155498,741.75,19.6,33,6,1.15,25.5,2.39,0,1.00073,1.00146,1000,0
18:36:56.4201559,741.75,19.9,33,5.25,1.18,25.5,2.39,0,0.99561,1.00464,1000,0
18:36:56.6034729,733.75,19.7,33,6.75,1.18,25.5,2.39,0,0.99707,1.00342,1000,0
18:36:56.8091244,747,19.7,33,6,1.14,25.5,2.44,0,0.99878,1.00171,1000,0
18:36:57.0055681,740.75,19.3,33,6,1.12,25.5,2.44,0,0.9978,0.99878,1000,0
18:36:57.1949212,745.75,19.5,33,6,1.16,25.5,2.39,0,0.99585,1.00122,1000,0
18:36:57.3790132,737.75,19.6,33,7.5,1.16,25.5,2.39,0,0.99561,1.00342,1000,0
18:36:57.5839487,755.75,19.5,33,4.5,1.11,25.5,2.44,0,1.00195,1.00342,1000,0
18:36:57.7846016,728.5,19.6,33,8.25,1.14,25.5,2.44,0,1.00488,1.00586,1000,0
18:36:57.9842867,748.75,19.6,33,4.5,1.16,25.5,2.44,0,1.00635,1.00903,1000,0
18:36:58.1747036,749.25,19.4,33,5.25,1.16,25.5,2.44,0,1.00513,1.0105,1000,0
18:36:58.3519432,736.5,19.8,33,7.5,1.14,25.5,2.47,0,1.00806,1.00928,1000,0
18:36:58.5610174,744.5,19.8,33,5.25,1.15,25.5,2.44,0,1.00732,1.00659,1000,0
18:36:58.7657921,742.5,20.9,33,6,1.2,25.5,2.44,0,1.00537,1.00806,1000,0
18:36:59.0971879,741,19.8,33,5.25,1.18,25.5,2.44,0,1.00586,1.00586,1000,0
18:36:59.2975357,740.25,19.5,33,6,1.15,25.5,2.39,0,1.00732,1.00366,1000,0
18:36:59.4981126,750.25,19,33,4.5,1.12,25.5,2.39,0,1.00415,1.00171,1000,0
18:36:59.6981881,747.5,19.4,33,6,1.16,25.5,2.39,0,0.9978,0.99902,1000,0
18:36:59.8979088,748,19.5,33,5.25,1.16,25.5,2.39,0,0.9978,0.99805,1000,0
18:37:00.0989877,745.75,19.4,33,6,1.12,25.5,2.37,0,1.00073,0.99634,1000,0
18:37:00.2995788,745,19.4,33,6.75,1.12,25.5,2.39,0,1.00049,1,1000,0
18:37:00.4992782,741,19.6,33,6.75,1.16,25.5,2.39,0,0.99902,1.00391,1000,0
18:37:00.6838318,748.75,20,33,4.5,1.17,25.5,2.39,0,1.00024,1.00464,1000,0
18:37:00.8856062,737.5,19.6,33,6.75,1.14,25.5,2.39,0,1.00317,1.00293,1000,0
18:37:01.1043447,740.25,19.5,33,6,1.13,25.5,2.39,0,1.00171,1.00366,1000,0
18:37:01.3036622,736.5,19.5,33,6.75,1.16,25.5,2.37,0,0.9978,1.00488,1000,0
18:37:01.4929256,732.5,19.9,33,7.5,1.18,25.5,2.37,0,0.99707,1.0022,1000,0
18:37:01.6924130,744.75,19.4,33,4.5,1.14,25.5,2.34,0,0.99902,0.9978,1000,0
18:37:01.8924821,733.25,19.3,33,6.75,1.14,25.5,2.34,0,0.99829,0.99805,1000,0
18:37:02.1143561,738,19.1,33,6,1.16,25.5,2.34,0,0.99658,0.9978,1000,0
18:37:02.3202892,741,19.1,33,6.75,1.15,25.5,2.34,0,0.99609,0.99536,1000,0
18:37:02.4986232,741,19.2,33,6.75,1.12,25.5,2.34,0,0.99854,0.99316,1000,0
18:37:02.7032066,744.25,19.3,33,6,1.11,25.5,2.37,0,0.99609,0.9917,1000,0
18:37:02.9051297,734,19.6,33,9,1.16,25.5,2.37,0,0.99561,0.99292,1000,0
18:37:03.1043220,741,19.2,33,6.75,1.15,25.5,2.34,0,0.99829,0.99268,1000,0
18:37:03.3181544,744,19.2,33,6,1.11,25.5,2.37,0,1.00269,0.99219,1000,0
18:37:03.5148662,744.25,19.2,33,6.75,1.12,25.5,2.37,0,1.00024,0.9939,1000,0
18:37:03.6975502,741,19.9,33,6,1.16,25.5,2.39,0,0.99536,0.99658,1000,0
18:37:03.8979202,738,19.6,33,6,1.16,25.5,2.39,0,0.99927,0.99878,1000,0
18:37:04.0973855,735.5,19.5,33,6.75,1.14,25.5,2.39,0,1.00122,0.99976,1000,0
18:37:04.3153433,733,19.5,33,7.5,1.14,25.5,2.39,0,1,1.00049,1000,0
18:37:04.5139901,736.75,19.4,33,6,1.17,25.5,2.37,0,0.99463,1.00195,1000,0
18:37:04.7036838,741.25,19.3,33,5.25,1.16,25.5,2.37,0,0.99927,1.00122,1000,0
18:37:04.8936448,734.75,19.1,33,6.75,1.13,25.5,2.37,0,1.00146,1.00073,1000,0
18:37:05.0944557,745,19.5,33,5.25,1.13,25.5,2.37,0,1,1.00269,1000,0
18:37:05.2992979,738.5,19.4,33,6,1.16,25.5,2.37,0,0.99438,1.00391,1000,0
18:37:05.5191444,730,19.2,33,7.5,1.16,25.5,2.39,0,1.00317,1.00366,1000,0
18:37:05.7188871,747.25,19.2,33,5.25,1.12,25.5,2.37,0,1.00269,1.00269,1000,0
18:37:05.9097015,740.5,19.9,33,6,1.14,25.5,2.37,0,1.00366,1.00317,1000,0
18:37:06.1094983,740,19.4,33,6.75,1.16,25.5,2.39,0,1.00317,1.00439,1000,0
18:37:06.2989907,747,19.8,33,6,1.16,25.5,2.39,0,1.00415,1.00317,1000,0
18:37:06.4885898,728,19.5,33,7.5,1.13,25.5,2.39,0,1.00586,1.00269,1000,0
18:37:06.6957077,744,19.5,33,5.25,1.13,25.5,2.39,0,1.00293,1.00073,1000,0
18:37:06.9017084,737,19.5,33,6,1.16,25.5,2.39,0,1.00146,1.00269,1000,0
18:37:07.0827120,744.75,19.6,33,6,1.16,25.5,2.39,0,1.00366,1.0022,1000,0
18:37:07.2823800,739,19.7,33,6,1.14,25.5,2.39,0,1.00464,0.99805,1000,0
18:37:07.4890883,741,19.6,33,6,1.14,25.5,2.39,0,1.00415,0.99976,1000,0
18:37:07.6896872,735.5,19.6,33,6.75,1.17,25.5,2.39,0,1.00073,1.00146,1000,0
18:37:07.8898936,738,19.5,33,6.75,1.17,25.5,2.37,0,1.00024,1.00049,1000,0
18:37:08.0899784,738,19.2,33,6,1.13,25.5,2.39,0,1.00269,1.00049,1000,0
18:37:08.2898982,748.25,19.3,33,6,1.12,25.5,2.39,0,1.00049,1.00073,1000,0
18:37:08.4905518,743.5,19.4,33,6,1.16,25.5,2.39,0,0.99829,1.00195,1000,0
18:37:08.6910163,744.25,19.4,33,5.25,1.16,25.5,2.39,0,1.00073,1,1000,0
18:37:08.8916167,735.25,19.5,33,6.75,1.13,25.5,2.39,0,1.00195,0.99585,1000,0
18:37:09.1073763,736.5,19.4,33,6.75,1.13,25.5,2.39,0,1.00244,0.99878,1000,0
18:37:09.3071830,739,19.3,33,6.75,1.16,25.5,2.39,0,0.99927,1.00122,1000,0
18:37:09.4916264,749.75,19.3,33,5.25,1.14,25.5,2.39,0,1.00146,1.00073,1000,0
18:37:09.6961742,737.25,19.3,33,8.25,1.12,25.5,2.39,0,1.00293,0.99805,1000,0
18:37:09.8964432,744.75,19.3,33,6,1.12,25.5,2.39,0,1,0.99756,1000,0
18:37:10.0970847,741.25,19.3,33,7.5,1.15,25.5,2.39,0,0.99609,1.00024,1000,0
18:37:10.2767151,742,19.4,33,6.75,1.15,25.5,2.39,0,1.00146,1.00269,1000,0
18:37:10.4935898,736,19.3,33,6.75,1.12,25.5,2.37,0,1.00244,1.00195,1000,0
18:37:10.6804212,736.75,19.7,33,6,1.14,25.5,2.39,0,1.00366,1.00293,1000,0
18:37:10.9022972,742.75,19.3,33,5.25,1.16,25.5,2.39,0,1.00073,1.00439,1000,0
18:37:11.1023969,748,19.5,33,6,1.16,25.5,2.39,0,1.00366,1.00513,1000,0
18:37:11.2910253,742.25,19.5,33,5.25,1.13,25.5,2.39,0,1.00537,1.00366,1000,0
18:37:11.4793586,737.25,19.5,33,6,1.14,25.5,2.37,0,1.00415,1.00342,1000,0
18:37:11.7000172,735,19.3,33,6,1.16,25.5,2.39,0,1.00366,1.00635,1000,0
18:37:11.8868037,744.25,19.4,33,4.5,1.16,25.5,2.39,0,1.00391,1.00439,1000,0
18:37:12.0766403,745.75,19.4,33,4.5,1.13,25.5,2.39,0,1.00708,1.00293,1000,0
18:37:12.2813190,735.5,19.5,33,7.5,1.14,25.5,2.39,0,1.00635,1.00342,1000,0
18:37:12.4872074,735.25,19.2,33,6,1.16,25.5,2.37,0,1.00269,1.00391,1000,0
18:37:12.6874365,726.5,19.4,33,8.25,1.17,25.5,2.37,0,1.00366,1.00366,1000,0
18:37:12.8935702,737.5,19.3,33,6,1.14,25.5,2.37,0,1.00317,1.00146,1000,0
18:37:13.0848810,738,19.4,33,6.75,1.14,25.5,2.37,0,1.00171,1.00122,1000,0
18:37:13.2754664,747.25,19.1,33,5.25,1.16,25.5,2.37,0,0.99731,1.00073,1000,0
18:37:13.4931759,742,19.5,33,6,1.16,25.5,2.37,0,0.99683,0.99902,1000,0
18:37:13.7093949,735,19.9,33,6,1.15,25.5,2.37,0,1.00024,0.99854,1000,0
18:37:13.8973150,740.25,19.5,33,6,1.14,25.5,2.37,0,0.99756,0.99805,1000,0
18:37:14.0809022,740.75,19.5,33,5.25,1.16,25.5,2.37,0,0.99658,1.00049,1000,0
18:37:14.2856484,741.25,19.3,33,5.25,1.16,25.5,2.37,0,0.99731,0.99976,1000,0
18:37:14.4859430,743.25,19.6,33,5.25,1.14,25.5,2.37,0,0.99756,0.99658,1000,0
18:37:14.6709176,741.5,19.4,33,5.25,1.13,25.5,2.39,0,0.9978,0.99634,1000,0
18:37:14.8706347,734.5,19.4,33,6.75,1.16,25.5,2.37,0,0.99585,0.99634,1000,0
18:37:15.0497573,742.25,19.5,33,5.25,1.16,25.5,2.37,0,0.99487,0.99634,1000,0
18:37:15.2503918,733.5,19.5,33,6.75,1.13,25.5,2.37,0,0.99683,0.99609,1000,0
18:37:15.4491688,738,19.2,33,6.75,1.13,25.5,2.37,0,0.99683,0.99585,1000,0
18:37:15.6488660,737.5,19.4,33,6,1.16,25.5,2.37,0,0.99683,0.99731,1000,0
18:37:15.8395119,736.75,19.2,33,6.75,1.16,25.5,2.34,0,0.99683,0.99756,1000,0
18:37:16.0460722,736.5,19.3,33,6,1.13,25.5,2.34,0,0.99927,0.99561,1000,0
18:37:16.2293828,731.25,19.6,33,7.5,1.14,25.5,2.34,0,1.00122,0.99561,1000,0
18:37:16.4196908,752,19.3,33,3.75,1.14,25.5,2.34,0,0.99536,0.99707,1000,0
18:37:16.6104157,749,19.3,33,5.25,1.14,25.5,2.37,0,0.99731,0.99731,1000,0
18:37:16.8002857,742.25,19.6,33,6,1.12,25.5,2.34,0,1,0.99463,1000,0
18:37:17.0039588,745.5,19.4,33,5.25,1.12,25.5,2.34,0,0.99707,0.99365,1000,0
18:37:17.2089170,749,19.4,33,5.25,1.15,25.5,2.37,0,0.99683,0.99634,1000,0
18:37:17.4146724,738.25,19.9,33,6.75,1.16,25.5,2.37,0,0.99536,0.99609,1000,0
18:37:17.6163415,736.75,19.3,33,6,1.13,25.5,2.34,0,0.99609,0.99219,1000,0
18:37:17.7949700,732.25,19.2,33,8.25,1.12,25.5,2.34,0,0.99707,0.99194,1000,0
18:37:17.9949367,738,19.2,33,6.75,1.14,25.5,2.34,0,0.99414,0.99146,1000,0
18:37:18.2000819,737,19.3,33,7.5,1.14,25.5,2.37,0,0.99487,0.99219,1000,0
18:37:18.3896995,733,19.2,33,8.25,1.11,25.5,2.34,0,0.99609,0.9917,1000,0
18:37:18.5796278,746.25,19.1,33,6,1.11,25.5,2.34,0,0.99658,0.99316,1000,0
18:37:18.7951129,733,19.3,33,8.25,1.15,25.5,2.37,0,0.99829,0.9978,1000,0
18:37:18.9866470,744.5,19.1,33,6,1.12,25.5,2.37,0,1.00244,1.00171,1000,0
18:37:19.2076412,742.5,19.4,33,6.75,1.11,25.5,2.37,0,1.00317,1.00122,1000,0
18:37:19.3947044,742.75,19.4,33,6,1.11,25.5,2.37,0,1.00537,1.00171,1000,0
18:37:19.5934452,739,19.7,33,6.75,1.16,25.5,2.37,0,1.00317,1.00366,1000,0
18:37:19.8092367,741.75,19.4,33,5.25,1.16,25.5,2.37,0,1.00244,1.00513,1000,0
18:37:20.0094019,742.75,19.6,33,5.25,1.13,25.5,2.37,0,1.00171,1.00146,1000,0
18:37:20.2104915,729.75,19.1,33,7.5,1.13,25.5,2.34,0,1.00269,1.00122,1000,0
18:37:20.4109546,739.25,19.3,33,5.25,1.16,25.5,2.34,0,1.00049,1.00122,1000,0
18:37:20.6104932,732,19.1,33,6.75,1.15,25.5,2.34,0,0.99829,0.99854,1000,0
18:37:20.8017222,745.75,19.5,33,4.5,1.13,25.5,2.34,0,1.00073,0.99634,1000,0
18:37:20.9920865,736.25,19.5,33,6.75,1.13,25.5,2.34,0,0.99854,0.9939,1000,0
18:37:21.2074535,739.25,19.3,33,5.25,1.16,25.5,2.34,0,0.99683,0.99609,1000,0
18:37:21.4080375,735.75,19.3,33,6.75,1.16,25.5,2.34,0,1.00049,0.99805,1000,0
18:37:21.6145090,737.5,19.2,33,6,1.12,25.5,2.34,0,1,0.9978,1000,0
18:37:21.8048576,739.75,19.3,33,6,1.12,25.5,2.34,0,1.00049,0.99927,1000,0
18:37:22.0076233,739,19.3,33,6.75,1.16,25.5,2.34,0,0.99683,1.00049,1000,0
18:37:22.2141026,730.25,19,33,8.25,1.15,25.5,2.37,0,0.99878,1.00293,1000,0
18:37:22.4189534,742.25,19.2,33,6,1.12,25.5,2.34,0,1.00293,1.00171,1000,0
18:37:22.6234095,741.25,19.2,33,6,1.12,25.5,2.34,0,1,1.00293,1000,0
18:37:22.8131330,738.5,19.3,33,6.75,1.15,25.5,2.37,0,1.00122,1.00586,1000,0
18:37:23.0346187,732.5,19.2,33,8.25,1.15,25.5,2.37,0,1.00122,1.00513,1000,0
18:37:23.2424264,736,19.4,33,6.75,1.12,25.5,2.37,0,1.00269,1.00464,1000,0
18:37:23.4516122,739.75,19.5,33,6,1.12,25.5,2.37,0,1.00415,1.00732,1000,0
18:37:23.6550116,740.75,19.5,33,6,1.15,25.5,2.39,0,1.00122,1.01147,1000,0
18:37:23.8401853,738.75,19.9,33,6,1.16,25.5,2.39,0,1.00244,1.0105,1000,0
18:37:24.0234980,736.75,19.6,33,6.75,1.13,25.5,2.39,0,1.00366,1.00464,1000,0
18:37:24.2234476,738.75,19.6,33,6,1.14,25.5,2.39,0,1.00293,1.00464,1000,0
18:37:24.4235679,742.25,20,33,6,1.17,25.5,2.39,0,1.00244,1.00732,1000,0
18:37:24.6233633,745.25,19.6,33,4.5,1.16,25.5,2.39,0,0.9978,1.00488,1000,0
18:37:24.8238491,728.75,19.6,33,7.5,1.14,25.5,2.39,0,1.00073,1,1000,0
18:37:25.0187369,743,19.5,33,5.25,1.14,25.5,2.39,0,1.00049,0.99854,1000,0
18:37:25.2025694,745,19.7,33,5.25,1.16,25.5,2.39,0,0.99268,1.00073,1000,0
18:37:25.4074273,743.25,19.4,33,5.25,1.16,25.5,2.39,0,0.9978,1.00317,1000,0
18:37:25.5979495,743,19.5,33,5.25,1.13,25.5,2.39,0,0.99829,1.00146,1000,0
18:37:25.7817642,734,19.6,33,7.5,1.13,25.5,2.37,0,0.99878,0.99902,1000,0
18:37:25.9713142,733.75,19.3,33,6.75,1.16,25.5,2.39,0,0.99756,1,1000,0
18:37:26.1713826,742.75,19.4,33,6,1.16,25.5,2.39,0,0.99902,1,1000,0
18:37:26.3626579,736.5,19.7,33,6.75,1.13,25.5,2.39,0,1.00195,1.00049,1000,0
18:37:26.5576402,741.75,19.6,33,5.25,1.13,25.5,2.39,0,1.00415,0.99902,1000,0
18:37:26.7679077,747.25,19.4,33,5.25,1.15,25.5,2.39,0,1.00244,0.99927,1000,0
18:37:26.9517964,736.5,19.2,33,6.75,1.15,25.5,2.39,0,1.00171,1.00049,1000,0
18:37:27.1366060,742.25,19.4,33,6,1.12,25.5,2.39,0,1,0.99854,1000,0
18:37:27.3257436,747.75,19.3,33,5.25,1.1,25.5,2.39,0,1.00024,0.99805,1000,0
18:37:27.5324647,733.75,19.4,33,8.25,1.12,25.5,2.39,0,0.99756,1.00122,1000,0
18:37:27.7328453,734.5,19.4,33,7.5,1.15,25.5,2.39,0,0.99707,1.0022,1000,0
18:37:27.9414679,729.75,19.3,33,8.25,1.15,25.5,2.39,0,1.0061,1.00171,1000,0
18:37:28.1304419,748.5,19.4,33,4.5,1.12,25.5,2.37,0,1.00244,0.99927,1000,0
18:37:28.3222306,741.25,19.4,33,6,1.12,25.5,2.39,0,1.00171,1.00122,1000,0
18:37:28.5168745,725.75,19.5,33,8.25,1.16,25.5,2.39,0,1.00049,1.00269,1000,0
18:37:28.7019230,740.5,19.5,33,5.25,1.16,25.5,2.39,0,1.00049,0.99902,1000,0
18:37:28.8899370,733.75,19.4,33,6.75,1.13,25.5,2.39,0,1.00317,0.99805,1000,0
18:37:29.0950943,734.25,19.4,33,7.5,1.13,25.5,2.39,0,1.00195,0.9978,1000,0
18:37:29.2795960,739,19.4,33,6,1.16,25.5,2.39,0,1.00024,0.9978,1000,0
18:37:29.4643771,731.75,19.4,33,8.25,1.16,25.5,2.39,0,1.00244,0.99731,1000,0
18:37:29.6639890,745,19.5,33,6,1.13,25.5,2.39,0,1.00195,0.99341,1000,0
18:37:29.8641633,734.5,19.4,33,6.75,1.13,25.5,2.39,0,1.00122,0.99536,1000,0
18:37:30.0639075,731.75,19.4,33,7.5,1.16,25.5,2.39,0,1.00024,0.99902,1000,0
18:37:30.2643187,745.5,19.7,33,5.25,1.17,25.5,2.39,0,1.00024,0.99878,1000,0
18:37:30.4648642,738.5,19.8,33,6,1.15,25.5,2.39,0,1.00171,0.99658,1000,0
18:37:30.6525155,741.25,19.9,33,5.25,1.15,25.5,2.39,0,1,0.99585,1000,0
18:37:30.8525839,728,19.3,33,7.5,1.17,25.5,2.39,0,0.99438,0.99731,1000,0
18:37:31.0472470,737,19.4,33,6,1.16,25.5,2.39,0,0.99658,0.99463,1000,0
18:37:31.2488821,747.75,19.4,33,5.25,1.13,25.5,2.39,0,0.99487,0.99048,1000,0
18:37:31.4323896,735.75,19.5,33,6.75,1.13,25.5,2.39,0,0.99463,0.99048,1000,0
18:37:31.6337515,742.75,20.1,33,5.25,1.16,25.5,2.39,0,0.9917,0.99194,1000,0
18:37:31.8174347,730.75,19.5,33,7.5,1.16,25.5,2.39,0,0.99219,0.99365,1000,0
18:37:32.0177065,739.5,19.5,33,6,1.13,25.5,2.39,0,0.99561,0.99561,1000,0
18:37:32.2076860,738.75,19.4,33,6,1.13,25.5,2.39,0,0.99585,0.99561,1000,0
18:37:32.4141490,738.5,19.5,33,6,1.16,25.5,2.39,0,0.9939,0.9978,1000,0
18:37:32.6027368,727,19.6,33,8.25,1.16,25.5,2.39,0,0.99561,0.99609,1000,0
18:37:32.7923160,747.25,19.5,33,5.25,1.13,25.5,2.37,0,0.99854,0.99487,1000,0
18:37:32.9927556,733,19.9,33,7.5,1.14,25.5,2.39,0,1.00244,0.99707,1000,0
18:37:33.1980544,741.75,19.3,33,6,1.15,25.5,2.39,0,1.00049,1.00073,1000,0
18:37:33.3979252,741.75,19.6,33,6,1.15,25.5,2.39,0,1,1.00342,1000,0
18:37:33.5824930,739.5,19.5,33,6.75,1.12,25.5,2.39,0,1.00171,1.00391,1000,0
18:37:33.7834012,742.75,19.3,33,6,1.11,25.5,2.44,0,1,1.00317,1000,0
18:37:33.9838871,745.25,19.5,33,6,1.14,25.5,2.44,0,0.99365,1.00562,1000,0
18:37:34.1618513,735.5,19.6,33,7.5,1.15,25.5,2.44,0,0.99683,1.00659,1000,0
18:37:34.3937835,736,19.9,33,6.75,1.14,25.5,2.44,0,0.99927,1.00439,1000,0
18:37:34.5951647,737.75,19.7,33,6.75,1.14,25.5,2.47,0,1.00146,1.00488,1000,0
18:37:34.7774825,736.5,19.7,33,6,1.16,25.5,2.44,0,1,1.00464,1000,0
18:37:34.9602852,752,19.7,33,3.75,1.16,25.5,2.47,0,0.99878,1.00342,1000,0
18:37:35.1603586,734.25,28.9,33,4.5,1.36,25.5,3.71,0,1,1.00122,1000,0
18:37:35.3610877,713.25,29,33,3,1.54,25.5,3.66,0,0.99902,0.99854,1000,0
18:37:35.5604165,736.75,27.5,33,-3,1.59,25.5,3.61,0,1.00488,1.00317,1000,0
18:37:35.7603263,744,27.5,33,-4.5,1.62,25.5,3.52,0,1.01636,1.00977,1000,0
18:37:35.9611336,755,19.1,33,-4.5,1.41,25.5,2,0,1.02466,1.01318,1000,0
18:37:36.1444228,748.25,16.9,33,-0.75,1.22,25.5,2.1,0,1.02466,1.02124,1000,0
18:37:36.3441527,735.25,19.1,33,3,1.22,25.5,2.29,0,1.01514,1.02441,1000,0
18:37:36.5443939,736.75,19.1,33,4.5,1.17,25.5,2.37,0,1.00781,1.02441,1000,0
18:37:36.7288658,737.5,19.6,33,6,1.16,25.5,2.44,0,1.00708,1.01978,1000,0
18:37:36.9441780,742.75,19.7,33,5.25,1.15,25.5,2.44,0,1.00391,1.01221,1000,0
18:37:37.1449398,735,19.6,33,6.75,1.17,25.5,2.44,0,1,1.00366,1000,0
18:37:37.3446719,741.75,19.5,33,5.25,1.16,25.5,2.39,0,0.99438,1.00195,1000,0
18:37:37.5205773,739.25,19.5,33,6.75,1.16,25.5,2.44,0,0.99438,0.99536,1000,0
18:37:37.7094930,736.25,19.5,33,7.5,1.14,25.5,2.44,0,0.99316,0.98877,1000,0
18:37:37.9095799,738.75,19.6,33,6.75,1.14,25.5,2.44,0,0.98828,0.98657,1000,0
18:37:38.0885753,746.5,19.5,33,5.25,1.16,25.5,2.44,0,0.98682,0.98975,1000,0
18:37:38.2878970,737,19.8,33,6.75,1.16,25.5,2.44,0,0.98804,0.98853,1000,0
18:37:38.4885571,738.75,19.5,33,6,1.13,25.5,2.44,0,0.99146,0.98584,1000,0
18:37:38.6886696,735.5,19.7,33,7.5,1.14,25.5,2.44,0,0.99268,0.98657,1000,0
18:37:38.8940623,733.75,19.9,33,7.5,1.17,25.5,2.47,0,0.98999,0.98608,1000,0
18:37:39.0838306,733.25,19.9,33,6.75,1.17,25.5,2.47,0,0.99146,0.98584,1000,0
18:37:39.3004777,740.25,19.8,33,5.25,1.15,25.5,2.47,0,0.99707,0.98486,1000,0
18:37:39.4912573,730.5,19.7,33,7.5,1.15,25.5,2.47,0,0.99878,0.98657,1000,0
18:37:39.6805733,740.5,20,33,6,1.17,25.5,2.47,0,0.99829,0.99292,1000,0
18:37:39.8960072,740,19.7,33,6,1.17,25.5,2.47,0,0.99609,0.99487,1000,0
18:37:40.1966606,733.75,19.6,33,7.5,1.14,25.5,2.47,0,1,0.99878,1000,0
18:37:40.3972503,741.5,19.7,33,5.25,1.16,25.5,2.47,0,0.99658,1.0022,1000,0
18:37:40.6022305,730,19.7,33,7.5,1.16,25.5,2.47,0,0.99561,1.00391,1000,0
18:37:40.7873103,723.75,19.5,33,9,1.15,25.5,2.47,0,0.99829,1.00342,1000,0
18:37:40.9721171,746,19.8,33,5.25,1.14,25.5,2.47,0,0.99731,1.00122,1000,0
18:37:41.1731050,738,19.7,33,6,1.17,25.5,2.47,0,0.99731,1.00439,1000,0
18:37:41.3589820,741.25,19.9,33,6,1.17,25.5,2.47,0,0.99756,1.00562,1000,0
18:37:41.5582127,731.25,19.7,33,7.5,1.14,25.5,2.47,0,1.00146,1.00464,1000,0
18:37:41.7625316,734,19.8,33,6.75,1.14,25.5,2.47,0,1.00171,1.0022,1000,0
18:37:41.9631689,735.75,19.9,33,6.75,1.18,25.5,2.47,0,1,1.00171,1000,0
18:37:42.1493488,731.5,19.8,33,6.75,1.18,25.5,2.47,0,1,1.00195,1000,0
18:37:42.3534181,744.75,19.9,33,5.25,1.15,25.5,2.47,0,1.00293,1.00073,1000,0
18:37:42.5382661,740.75,19.6,33,6,1.14,25.5,2.49,0,1.00513,0.99854,1000,0
18:37:42.7245037,740,19.6,33,6.75,1.16,25.5,2.49,0,1.00366,1.00122,1000,0
18:37:42.9141497,728.75,19.6,33,8.25,1.17,25.5,2.49,0,0.99878,1.00146,1000,0
18:37:43.1044905,741,19.5,33,6,1.15,25.5,2.49,0,1,0.99927,1000,0
18:37:43.3112734,734.25,19.5,33,7.5,1.14,25.5,2.54,0,1.00366,0.99878,1000,0